Miscellaneous Local Product
Issued by NWS North Platte, NE

Home | Current Version | Previous Version | Graphics & Text | Print | Product List | Glossary On
Versions: 1 2 3 4 5 6 7 8 9 10 11 12 13 14 15 16 17 18 19 20 21 22 23 24 25 26 27 28 29 30 31 32 33 34 35 36 37 38 39 40 41 42 43 44 45 46 47 48 49 50
000
AXUS43 KLBF 221810
MISLBF


WESTERN AND NORTH CENTRAL NEBRASKA HOURLY WEATHER ROUNDUP
NATIONAL WEATHER SERVICE NORTH PLATTE NE
100 PM CDT SAT JUL 22 2017

NOTE: "FAIR" INDICATES FEW OR NO CLOUDS BELOW 12,000 FEET WITH NO
SIGNIFICANT WEATHER AND/OR OBSTRUCTIONS TO VISIBILITY.

NOTE: STATIONS NOT REPORTING VARIABLES SUCH AS SKY/WEATHER OR
PRESSURE ARE PROVIDED BY RAWS AND APRS NETWORKS AND ARE NOT UNDER
NATIONAL WEATHER SERVICE QUALITY CONTROL.

...OBSERVATIONS IN AND NEAR THE EASTERN PANHANDLE OF NEBRASKA...

CITY           SKY/WX    TMP DP  RH WIND       PRES   REMARKS
GORDON         FAIR      86  51  30 SE8       30.09S
ALLIANCE       MOSUNNY   88  51  28 S14       30.11S
SIDNEY         MOSUNNY   86  51  29 SE16G24   30.16F
CRESCENT LAKE    N/A     86  55  34 SE6         N/A
$$

...OBSERVATIONS IN NORTHERN NEBRASKA AND FAR SOUTHERN SOUTH DAKOTA...

CITY           SKY/WX    TMP DP  RH WIND       PRES   REMARKS
WINNER         FAIR      89  63  41 CALM      30.00R HX  90
THEDFORD       CLOUDY    82  64  53 S3        30.09S
AINSWORTH      CLOUDY    78  68  71 CALM      30.06R
O`NEILL        CLOUDY    80  73  79 N9        29.99S
ORD            CLOUDY    87  64  46 N8        29.96R
BROKEN BOW     CLOUDY    83  68  60 N9        30.02R
VALENTINE NWR    N/A     78  65  64 CALM        N/A
HALSEY           N/A     77  69  75 NW6         N/A
BUTTE            N/A     81  71  70 N3          N/A
CHAMBERS         N/A     82  74  77 CALM        N/A
EWING            N/A     80  75  86 N5          N/A
$$

...OBSERVATIONS IN SOUTHWEST NEBRASKA AND FAR NORTHEAST COLORADO...

CITY           SKY/WX    TMP DP  RH WIND       PRES   REMARKS
HOLYOKE        FAIR      79  59  50 N6        30.14S
IMPERIAL       CLOUDY    80  58  46 W5        30.11R
OGALLALA       LGT RAIN  82  58  44 NE7       30.10S
NORTH PLATTE   CLOUDY    80  67  64 N9        30.08R
MCCOOK         CLOUDY    93  57  29 NE13      30.01S HX  91
LEXINGTON      CLOUDY    84  69  59 CALM      30.02R
STAPLETON        N/A     77  68  74 CALM        N/A
GOTHENBURG       N/A     83  59  44 N3          N/A
CALLAWAY         N/A     82  67  60 NE5         N/A
$$

...OBSERVATIONS IN CENTRAL LINCOLN COUNTY AREA...

CITY           SKY/WX    TMP DP  RH WIND       PRES   REMARKS
N.P. AIRPORT   CLOUDY    80  67  64 N9        30.08R
N.P. DOWNTOWN    N/A     79  69  70 CALM        N/A
N.P. SOUTHEAST   N/A     79  66  63 N5          N/A
N.P. HILLCREST   N/A     81  64  56 N10         N/A
$$

...SOME OBSERVATIONS FROM AROUND THE REGION...

CITY           SKY/WX    TMP DP  RH WIND       PRES   REMARKS
DENVER         MOSUNNY   83  49  30 NE6       30.21F
LIMON          PTSUNNY   78  57  48 NE8       30.23F
ASPEN          PTSUNNY   70  52  52 N6        30.39F
LARAMIE        MOSUNNY   77  31  18 NW7       30.34F
CASPER         SUNNY     82  29  14 MISG      30.22F
SCOTTSBLUFF    MOSUNNY   89  54  30 E12       30.11S
OMAHA          FAIR      89  76  65 N12       29.85S HX 100
SIOUX FALLS    PTSUNNY   83  73  72 NW8       29.90F
PIERRE         SUNNY     91  51  25 N10       29.95S
RAPID CITY     SUNNY     86  37  17 NE12      30.09R
KANSAS CITY    FAIR      93  76  57 SW13      29.83S HX 105
WICHITA        FAIR     101  67  32 SW9       29.86F HX 106
OKLAHOMA CITY  FAIR     100  64  30 S8        29.91F HX 102
AMARILLO       FAIR      94  57  28 S9G20     30.04F HX  92
$$




USA.gov is the U.S. government's official web portal to all federal, state and local government web resources and services.